Regional Weather Roundup
Issued by NWS Huntsville, AL

Home | Current Version | Previous Version | Text Only | Print | Product List | Glossary On
Versions: 1 2 3 4 5 6 7 8 9 10 11 12 13 14 15 16 17 18 19 20 21 22 23 24 25 26 27 28 29 30 31 32 33 34 35 36 37 38 39 40 41 42 43 44 45 46 47 48 49 50
000
ASUS44 KHUN 180410
RWRHUN

WEATHER ROUNDUP FOR THE TENNESSEE VALLEY
NATIONAL WEATHER SERVICE HUNTSVILLE AL
1100 PM CDT FRI APR 17 2015

ALZ001>004-180500-
NORTHWEST ALABAMA

CITY           SKY/WX    TMP DP  RH WIND       PRES   REMARKS
SHOALS AIRPORT CLEAR     58  56  93 CALM      30.04S FOG
SHOALS TVA RES   N/A     57 N/A N/A MISG        N/A
$$

ALZ005>007-016-180500-
NORTH CENTRAL ALABAMA

CITY           SKY/WX    TMP DP  RH WIND       PRES   REMARKS
DECATUR AP     CLOUDY    60  60 100 CALM      30.03F FOG
HUNTSVILLE AP  MOCLDY    64  61  90 CALM      30.02F
HUN NWS/UAH      N/A     62  59  91 N2          N/A
MERIDIANVILLE  CLOUDY    61  55  82 CALM      30.04F FOG
REDSTONE ARSN  CLOUDY    61  60  97 W2        30.02F
VINEMONT AP    CLOUDY    60  60  99 CALM      30.05F
$$

ALZ008>010-180500-
NORTHEAST ALABAMA

CITY           SKY/WX    TMP DP  RH WIND       PRES   REMARKS
ALBERTVILLE    LGT RAIN  59  59 100 N6        30.02F
FORT PAYNE     CLOUDY    61  55  82 N5        30.04F
SCOTTSBORO AP  CLOUDY    59  59 100 CALM      30.04F FOG
SCOTTSBORO HCN   N/A     59 N/A N/A MISG        N/A
VALLEY HEAD      N/A     59 N/A N/A MISG        N/A
$$

TNZ076-096-097-180500-
SOUTHEASTERN MIDDLE TENNESSEE

CITY           SKY/WX    TMP DP  RH WIND       PRES   REMARKS
TULLAHOMA      MOCLDY    61  59  94 CALM      30.04F
WINCHESTER     CLOUDY    61  59  94 SE5       30.04F
$$

...SURROUNDING SITES...

CITY           SKY/WX    TMP DP  RH WIND       PRES   REMARKS
ATLANTA        LGT RAIN  62  60  93 E7        30.02F FOG
ANNISTON       CLOUDY    62  60  93 E3        30.01F
BIRMINGHAM     CLOUDY    62  60  93 NE5       30.03F
CHATTANOOGA    CLOUDY    61  60  97 CALM      30.05S
CORINTH        CLOUDY    64  61  88 CALM      30.02S
DALTON         DRIZZLE   59  59 100 CALM      30.05S
GADSDEN        CLOUDY    63  57  82 N6        30.01F
GOLDEN TRNGL   MOCLDY    63  61  94 CALM      30.00F
HALEYVILLE       N/A     61  61 100 CALM      30.05F FOG
JACKSON TN     CLEAR     58  57  97 S6        30.03R
MEMPHIS        PTCLDY    66  61  84 E7        30.01F
NASHVILLE      CLEAR     61  60  97 CALM      30.02F
OXFORD MS      FAIR      63  61  94 NE7       30.03F
ROME           CLOUDY    62  61  96 N8        30.03S
SAVANNAH       PTCLDY    63  32  31 CALM      30.03F
TUPELO         MOCLDY    61  59  93 NE3       30.01F
TUSCALOOSA     CLOUDY    65  62  90 N6        30.01S
$$

...GULF COAST WEATHER...

CITY           SKY/WX    TMP DP  RH WIND       PRES   REMARKS
GULFPORT       MOCLDY    73  70  90 CALM      29.94F
PASCAGOULA     MOCLDY    73  71  93 CALM      29.94F
MOBILE         CLOUDY    70  67  90 NE9       29.96F
GULF SHORES    PTCLDY    68  68  99 CALM      29.94F FOG
PENSACOLA      MOCLDY    69  68  96 N6        29.95F FOG
DESTIN         CLOUDY    74  71  91 VRB3      29.96F
PANAMA CITY    CLOUDY    75  72  88 CALM      29.97S
APPALACHICOLA  CLOUDY    78  73  84 S8        29.98S
$$



USA.gov is the U.S. government's official web portal to all federal, state and local government web resources and services.